Погода в Хакуринохабле

Россия / Республика Адыгея     45°01′09″N   40°14′10″E
темп.,
°C
ветер,
м/с
пор.,
м/с
влажн.,
%
обл.,
%
осадки,
мм/ч
давл.,
гПа
погр.,
м
13 мая, чт
чт1300:00+10вюв46890 0.0 101287
03:00+9вюв33910 0.0 101230
06:00+10ююв11880 0.0 101321
09:00+18вюв11696 0.0 1013319
12:00+23всв335735 0.0 1012622
15:00+24в566188 0.0 1012948
18:00+22в387857 0.0 1011217
21:00+17в5138620 0.0 1011237
14 мая, пт
пт1400:00+15в49905 0.0 1010137
03:00+14юв22855 0.0 101117
06:00+14вюв33750 0.0 101133
09:00+22в34605 0.0 1011198
12:00+27в45532 0.0 1010529
15:00+29в34524 0.0 1010922
18:00+28св23725 0.0 100946
21:00+21юв338810 0.0 101028
15 мая, сб
сб1500:00+19юз2291100 0.0 101024
03:00+16зюз47951 0.0 1011125
06:00+15юз35942 0.0 1013113
09:00+20зюз338216 0.0 1013379
12:00+24зсз3369100 0.0 1013693
15:00+26сз336247 0.0 10121097
18:00+25с127336 0.0 1012284
21:00+19св34861 1.0 101145
16 мая, вс
вс1600:00+18всв34920 0.0 101064
03:00+17в22959 0.0 101025
06:00+18вюв23969 0.0 1009100
09:00+23в348011 0.0 1007471
12:00+27всв45655 0.0 10051120
15:00+29в57625 0.0 10041705
18:00+25в6117469 0.0 1003475
21:00+20в487591 0.0 1002126
17 мая, пн
пн1700:00+18в477986 0.0 1002107
03:00+17ссз3472100 0.0 100461
06:00+16вюв127689 0.1 100523
09:00+20зсз127482 0.8 1006529
12:00+23з4471100 0.1 10071065
15:00+19ссз3590100 2.1 1010328
18:00+18зсз1291100 1.5 1011103
21:00+16з3791100 1.6 1012169